938  
ASUS42 KRAH 032110  
RWRRAH  
NORTH CAROLINA WEATHER ROUNDUP  
NATIONAL WEATHER SERVICE RALEIGH NC  
400 PM EST SAT DEC 03 2016  
 
NOTE: "FAIR" INDICATES FEW OR NO CLOUDS BELOW 12,000 FEET WITH NO  
SIGNIFICANT WEATHER AND/OR S TO VISIBILITY
.  
 
NCZ001-053-055-056-065-067-032200-  
WESTERN NORTH CAROLINA  
 
CITY SKY/WX TMP DP RH WIND PRES REMARKS
 
ASHEVILLE CLOUDY 48 28 46 N8 30.21R  
JEFFERSON CLOUDY 38 24 57 CALM 30.19S  
MORGANTON CLOUDY 52 32 47 CALM 30.24F  
HICKORY CLOUDY 52 30 43 CALM 30.20S  
RUTHERFORDTON CLOUDY 50 31 48 CALM 30.22R  
MOUNT AIRY CLOUDY 47 29 48 NW5 30.24S  
BOONE CLOUDY 40 24 52 NW13 30.19S WCI 33  

 
 
NCZ021-022-025-041-071-084-088-032200-  
CENTRAL NORTH CAROLINA  
 
CITY SKY/WX TMP DP RH WIND PRES REMARKS
 
CHARLOTTE PTSUNNY 52 30 43 NE3 30.23S  
GREENSBORO CLOUDY 49 28 44 NW3 30.22S  
WINSTON-SALEM CLOUDY 47 24 40 NW6 30.24S  
RALEIGH-DURHAM MOCLDY 52 27 38 CALM 30.24S  
FORT BRAGG MOSUNNY 51 28 40 N2 30.22F  
FAYETTEVILLE MOSUNNY 52 30 43 N7 30.23R  
BURLINGTON CLOUDY 49 27 42 NW3 30.23S  
LAURINBURG CLOUDY 52 30 43 NE5 30.24R  

 
 
NCZ011-015-027-028-043-044-047-080-103-032200-  
NORTHEASTERN NORTH CAROLINA  
 
CITY SKY/WX TMP DP RH WIND PRES REMARKS
 
ROCKY MT-WILSO PTCLDY 52 29 41 N7 30.23S  
GREENVILLE PTCLDY 52 30 43 N5 30.23S  
WASHINGTON PTCLDY 53 30 42 N6 30.23R  
ELIZABETH CITY CLEAR 50 29 44 N9 30.21R  
MANTEO PTCLDY 49 32 51 N5 30.21R  
CAPE HATTERAS PTCLDY 52 33 48 VRB5 30.20R  

 
 
NCZ078-087-090-091-093-098-101-032200-  
SOUTHEASTERN NORTH CAROLINA  
 
CITY SKY/WX TMP DP RH WIND PRES REMARKS
 
LUMBERTON CLOUDY 52 30 43 N7 30.23R  
GOLDSBORO MOCLDY 52 27 37 NW7 30.22R  
KINSTON PTCLDY 52 30 43 N5 30.24R  
KENANSVILLE PTCLDY 52 28 40 NW6 30.24R  
NEW BERN PTCLDY 51 31 46 N6 30.22R  
CHERRY POINT PTCLDY 53 32 44 NW7 30.23R  
BEAUFORT CLOUDY 52 32 46 N9 30.22R  
JACKSONVILLE PTCLDY 52 29 41 NW6 30.22R  
WILMINGTON CLOUDY 51 31 46 N5 30.23S  

 
 
 
 
CLICK HERE TO GO TO PREVIOUS BULLETINS.

The Nexlab NC Page Main Text Page